Home   Weather   Columbia   Past weeks

Flag for USA Past Weather in Columbia, South Carolina, USA — Yesterday and Last 2 Weeks

Now
62 °F

Low clouds.


Feels Like: 62 °F
Forecast: 61 / 68 °F
Wind: 7 mph from Northwest

Location: Columbia Metropolitan Airport

Current Time: Apr 24, 2017 at 3:27:41 pm

Latest Report: Apr 24, 2017 at 2:56 pm


Visibility: 10 mi

Pressure: 29.68 "Hg

Humidity: 90%

Dew Point: 59 °F

Location of ColumbiaLocation

Past Weather in Columbia — Graph

°F

Columbia Temperature Yesterday

Maximum temperature yesterday: 74 °F (at 12:56 am)
Minimum temperature yesterday: 61 °F (at 11:56 pm)
Average temperature yesterday: 67 °F

High & Low Weather Summary for the Past Weeks

 TemperatureHumidityPressure
High89 °F (Apr 21, 5:56 pm)100% (Apr 24, 12:56 am)30.37 "Hg (Apr 24, 12:56 am)
Low48 °F (Apr 10, 4:56 am)21% (Apr 9, 3:56 pm)29.69 "Hg (Apr 24, 1:56 pm)
Average71 °F64%30.12 "Hg
* Reported Apr 9 1:56 pm — Apr 24 1:56 pm, Columbia, Weather by CustomWeather, © 2017

Note: Actual official high and low records may vary slightly from our data, if they occured in-between our weather recording intervals... More about our weather records

Advertising

Columbia Weather History for the Previous 24 Hours

Scroll right to see more
 ConditionsComfort  
Time TempWeatherWind HumidityBarometerVisibility
1:56 pm
Mon, Apr 24
62 °FOvercast.8 mph86%29.69 "Hg10 mi
12:56 pm63 °FLight rain. Overcast.13 mph84%29.69 "Hg8 mi
12:31 pm63 °FLight rain. Overcast.12 mph81%29.70 "Hg7 mi
11:56 am64 °FOvercast.12 mph78%29.71 "Hg10 mi
10:56 am63 °FLight rain. Overcast.12 mph84%29.70 "Hg10 mi
9:56 am62 °FLow clouds.8 mph86%29.72 "Hg10 mi
8:56 am62 °FLow clouds.7 mph90%29.72 "Hg10 mi
7:56 am61 °FLow clouds.6 mph93%29.72 "Hg10 mi
7:32 am61 °FLight rain. Partly sunny.3 mph93%29.73 "Hg7 mi
6:56 am61 °FLight rain. Fog.6 mph93%29.71 "Hg6 mi
5:56 am61 °FRain. Fog.7 mph97%29.71 "Hg5 mi
4:56 am61 °FLow clouds.7 mph97%29.72 "Hg10 mi
4:03 am60 °FLight rain. Mostly cloudy.7 mph96%29.74 "Hg10 mi
3:33 am60 °FHeavy rain. Fog.8 mph96%29.73 "Hg2 mi
3:06 am60 °FHeavy rain. Fog.7 mph100%29.74 "Hg3 mi
2:05 am61 °FLight rain. Low clouds.No wind97%29.76 "Hg10 mi
1:17 am61 °FLight rain. Overcast.6 mph93%29.76 "Hg9 mi
12:56 am61 °FRain. Mostly cloudy.5 mph100%29.77 "Hg7 mi
12:26 am61 °FThunderstorms. Mostly cloudy.10 mph97%29.79 "Hg10 mi
11:56 pm
Sun, Apr 23
61 °FStrong thunderstorms. Fog.17 mph93%29.79 "Hg1 mi
11:34 pm63 °FStrong thunderstorms. Fog.13 mph90%29.76 "Hg2 mi
10:56 pm63 °FThunderstorms. Fog.5 mph93%29.79 "Hg3 mi
10:33 pm63 °FThunderstorms. Fog.5 mph93%29.80 "Hg6 mi
9:56 pm63 °FRain. Fog.7 mph90%29.79 "Hg6 mi
9:42 pm62 °FStrong thunderstorms. Fog.10 mph90%29.79 "Hg5 mi
9:30 pm62 °FLow clouds.8 mph90%29.79 "Hg10 mi
8:56 pm63 °FLight rain. Low clouds.10 mph87%29.78 "Hg10 mi
7:56 pm63 °FLight rain. Mostly cloudy.8 mph90%29.78 "Hg10 mi
7:43 pm63 °FLight rain. Fog.8 mph90%29.79 "Hg5 mi
7:16 pm64 °FRain. Fog.14 mph87%29.78 "Hg4 mi
6:56 pm66 °FRain. Mostly cloudy.13 mph81%29.78 "Hg3 mi
5:56 pm67 °FOvercast.13 mph76%29.78 "Hg10 mi
4:56 pm68 °FLight rain. Mostly cloudy.13 mph73%29.78 "Hg10 mi
4:20 pm69 °FLight rain. Overcast.14 mph68%29.80 "Hg10 mi
3:56 pm70 °FThundershowers. Overcast.16 mph66%29.79 "Hg10 mi
Weather by CustomWeather, © 2017

See weather overviewHow to use our weather pages